Tracking 31027 objects as of 19-Jul-2025
HD Live streaming from Space Station
objects crossing your sky now

THORAD DELTA 1 DEB

Track THORAD DELTA 1 DEB now!
10-day predictions


NORAD ID: 10392
Int'l Code: 1974-089EH
Perigee: 1,390.6 km
Apogee: 1,468.5 km
Inclination: 101.3 °
Period: 114.3 minutes
Semi major axis: 7800 km
RCS: 0.0162 m2 (small)
Launch date: November 15, 1974
Source: United States (US)
Launch site: AIR FORCE WESTERN TEST RANGE (AFWTR)

Note: This is SATELLITE DEBRIS
Your satellite tracking list
IRIDIUM 106
Track 1 satellite(s)




NASA's NSSDC Master Catalog

Two Line Element Set (TLE):
1 10392U 74089EH  25199.87257522 -.00000042  00000-0  88274-5 0  9998
2 10392 101.2666 249.0016 0049876 212.9360 328.8883 12.60128194332932
Source of the keplerian elements: AFSPC